Location: Chenereilles
(45.4866°N, 4.0790°E)
Time: 06:57:51
(UTC+00:00)

Cosmos 1437 - Pass Details

Date: 12 November 2019
Orbit: 380 x 384 km, 81.2° (Epoch: 15 December)

Event Time Altitude Azimuth Distance (km) Brightness Sun altitude
Rises 17:07:59 0° 347° (NNW) 2,282 6.5 -9.2°
Reaches altitude 10° 17:10:00 10° 345° (NNW) 1,422 5.4 -9.5°
Maximum altitude 17:13:04 69° 262° (W) 418 2.9 -10.0°
Drops below altitude 10° 17:16:07 10° 178° (S) 1,410 5.6 -10.6°
Sets 17:18:06 0° 176° (S) 2,259 6.6 -10.9°
